When you browse on this site, cookies collect data to enhance your experience and personalize the content and advertising you see.
Visit our Privacy Policy to learn more. By continuing to use the site, you agree to this use of cookies and data.

Météo par heure à Zavalovo

Ce jour, 7 Juillet, Mardi

Heure Température Précipitation Vent Pression Humidité
00:00 +20°C° 0 mm 1 m/s 744 mmHg 87%
01:00 +20°C° 0 mm 1 m/s 743 mmHg 89%
02:00 +19°C° 0 mm 2 m/s 743 mmHg 92%
03:00 +20°C° 0 mm 2 m/s 743 mmHg 92%
04:00 +20°C° 0 mm 2 m/s 743 mmHg 93%
05:00 +21°C° 0 mm 2 m/s 743 mmHg 93%
06:00 +23°C° 0.1 mm 2 m/s 742 mmHg 89%
07:00 +25°C° 0.1 mm 3 m/s 742 mmHg 86%
08:00 +27°C° 0 mm 3 m/s 742 mmHg 82%
09:00 +28°C° 1 mm 3 m/s 742 mmHg 75%
10:00 +30°C° 1 mm 3 m/s 742 mmHg 68%
11:00 +31°C° 1 mm 3 m/s 742 mmHg 61%
12:00 +31°C° 0 mm 3 m/s 741 mmHg 61%
13:00 +33°C° 0 mm 4 m/s 741 mmHg 61%
14:00 +33°C° 0 mm 4 m/s 741 mmHg 61%
15:00 +32°C° 0.4 mm 4 m/s 740 mmHg 67%
16:00 +30°C° 0.4 mm 4 m/s 740 mmHg 72%
17:00 +29°C° 0.4 mm 4 m/s 739 mmHg 78%
18:00 +28°C° 0.1 mm 4 m/s 739 mmHg 81%
19:00 +27°C° 0.1 mm 3 m/s 739 mmHg 84%
20:00 +26°C° 0.1 mm 3 m/s 739 mmHg 87%
21:00 +24°C° 0.7 mm 3 m/s 739 mmHg 88%
22:00 +23°C° 0.7 mm 2 m/s 739 mmHg 89%
23:00 +20°C° 0.7 mm 2 m/s 738 mmHg 91%

Demain, 8 Juillet, Mercredi

Heure Température Précipitation Vent Pression Humidité
00:00 +20°C° 0.1 mm 2 m/s 738 mmHg 90%
01:00 +20°C° 0.1 mm 2 m/s 739 mmHg 89%
02:00 +19°C° 0.1 mm 2 m/s 739 mmHg 88%
03:00 +20°C° 0.1 mm 2 m/s 738 mmHg 87%
04:00 +20°C° 0.1 mm 2 m/s 738 mmHg 87%
05:00 +20°C° 0.1 mm 2 m/s 738 mmHg 87%
06:00 +21°C° 0.1 mm 2 m/s 738 mmHg 86%
07:00 +23°C° 0.1 mm 2 m/s 738 mmHg 86%
08:00 +23°C° 0.1 mm 2 m/s 738 mmHg 85%
09:00 +24°C° 0 mm 2 m/s 739 mmHg 83%
10:00 +24°C° 0 mm 2 m/s 739 mmHg 82%
11:00 +25°C° 0 mm 2 m/s 739 mmHg 81%
12:00 +24°C° 0.3 mm 3 m/s 740 mmHg 84%
13:00 +22°C° 0.3 mm 4 m/s 740 mmHg 87%
14:00 +21°C° 0.3 mm 5 m/s 740 mmHg 90%
15:00 +20°C° 1.2 mm 5 m/s 741 mmHg 91%
16:00 +20°C° 1.2 mm 4 m/s 741 mmHg 92%
17:00 +19°C° 1.2 mm 4 m/s 741 mmHg 92%
18:00 +18°C° 0.1 mm 4 m/s 742 mmHg 93%
19:00 +18°C° 0.1 mm 4 m/s 742 mmHg 93%
20:00 +17°C° 0.1 mm 4 m/s 742 mmHg 93%
21:00 +15°C° 0 mm 4 m/s 743 mmHg 92%
22:00 +15°C° 0 mm 4 m/s 743 mmHg 92%
23:00 +14°C° 0 mm 4 m/s 743 mmHg 92%

Après-demain, 9 Juillet, Jeudi

Heure Température Précipitation Vent Pression Humidité
00:00 +14°C° 0 mm 4 m/s 743 mmHg 91%
01:00 +14°C° 0 mm 4 m/s 744 mmHg 91%
02:00 +13°C° 0 mm 4 m/s 744 mmHg 90%
03:00 +13°C° 0 mm 4 m/s 744 mmHg 90%
04:00 +13°C° 0 mm 4 m/s 744 mmHg 90%
05:00 +13°C° 0 mm 4 m/s 744 mmHg 90%
06:00 +14°C° 0 mm 4 m/s 744 mmHg 85%
07:00 +17°C° 0 mm 4 m/s 745 mmHg 80%
08:00 +18°C° 0 mm 4 m/s 745 mmHg 76%
09:00 +19°C° 0 mm 4 m/s 745 mmHg 73%
10:00 +20°C° 0 mm 4 m/s 745 mmHg 70%
11:00 +21°C° 0 mm 4 m/s 746 mmHg 68%
12:00 +22°C° 0.1 mm 4 m/s 746 mmHg 65%
13:00 +22°C° 0.1 mm 4 m/s 746 mmHg 63%
14:00 +22°C° 0.1 mm 4 m/s 746 mmHg 60%
15:00 +22°C° 0.1 mm 4 m/s 746 mmHg 64%
16:00 +21°C° 0.1 mm 4 m/s 746 mmHg 68%
17:00 +20°C° 0.1 mm 3 m/s 746 mmHg 72%
18:00 +19°C° 0 mm 3 m/s 747 mmHg 77%
19:00 +17°C° 0 mm 3 m/s 747 mmHg 82%
20:00 +14°C° 0 mm 3 m/s 747 mmHg 87%
21:00 +15°C° 0 mm 2 m/s 748 mmHg 89%
22:00 +14°C° 0 mm 2 m/s 748 mmHg 91%
23:00 +13°C° 0 mm 2 m/s 748 mmHg 93%

10 Juillet, Vendredi

Heure Température Précipitation Vent Pression Humidité
00:00 +13°C° 0 mm 2 m/s 749 mmHg 93%
01:00 +13°C° 0 mm 2 m/s 749 mmHg 94%
02:00 +12°C° 0 mm 2 m/s 749 mmHg 94%
03:00 +13°C° 0 mm 2 m/s 749 mmHg 93%
04:00 +13°C° 0 mm 2 m/s 750 mmHg 92%
05:00 +13°C° 0 mm 2 m/s 750 mmHg 91%
06:00 +15°C° 0 mm 2 m/s 750 mmHg 86%
07:00 +17°C° 0 mm 2 m/s 751 mmHg 80%
08:00 +18°C° 0 mm 2 m/s 751 mmHg 74%
09:00 +19°C° 0 mm 3 m/s 751 mmHg 69%
10:00 +20°C° 0 mm 3 m/s 751 mmHg 64%
11:00 +21°C° 0 mm 3 m/s 752 mmHg 59%
12:00 +23°C° 0 mm 2 m/s 752 mmHg 57%
13:00 +23°C° 0 mm 2 m/s 752 mmHg 55%
14:00 +23°C° 0 mm 2 m/s 752 mmHg 54%
15:00 +23°C° 0 mm 2 m/s 752 mmHg 56%
16:00 +23°C° 0 mm 2 m/s 752 mmHg 58%
17:00 +23°C° 0 mm 1 m/s 752 mmHg 60%
18:00 +21°C° 0 mm 1 m/s 752 mmHg 66%
19:00 +19°C° 0 mm 1 m/s 752 mmHg 71%
20:00 +16°C° 0 mm 1 m/s 752 mmHg 77%
21:00 +16°C° 0 mm 1 m/s 752 mmHg 79%
22:00 +15°C° 0 mm 1 m/s 753 mmHg 81%
23:00 +14°C° 0 mm 2 m/s 753 mmHg 83%

11 Juillet, Samedi

Heure Température Précipitation Vent Pression Humidité
00:00 +14°C° 0 mm 2 m/s 753 mmHg 84%
01:00 +14°C° 0 mm 2 m/s 753 mmHg 85%
02:00 +14°C° 0 mm 2 m/s 753 mmHg 87%
03:00 +14°C° 0 mm 2 m/s 753 mmHg 86%
04:00 +15°C° 0 mm 2 m/s 753 mmHg 86%
05:00 +15°C° 0 mm 2 m/s 753 mmHg 86%
06:00 +17°C° 0 mm 3 m/s 753 mmHg 82%
07:00 +19°C° 0 mm 3 m/s 753 mmHg 77%
08:00 +20°C° 0 mm 4 m/s 753 mmHg 73%
09:00 +21°C° 0 mm 4 m/s 753 mmHg 70%
10:00 +22°C° 0 mm 4 m/s 752 mmHg 66%
11:00 +23°C° 0 mm 5 m/s 752 mmHg 63%
12:00 +25°C° 0 mm 5 m/s 752 mmHg 63%
13:00 +25°C° 0 mm 5 m/s 752 mmHg 63%
14:00 +25°C° 0 mm 5 m/s 751 mmHg 63%
15:00 +25°C° 0 mm 4 m/s 751 mmHg 66%
16:00 +25°C° 0 mm 4 m/s 751 mmHg 70%
17:00 +25°C° 0 mm 3 m/s 751 mmHg 73%
18:00 +22°C° 0 mm 3 m/s 751 mmHg 78%
19:00 +21°C° 0 mm 3 m/s 751 mmHg 82%
20:00 +19°C° 0 mm 3 m/s 750 mmHg 87%
21:00 +19°C° 0 mm 3 m/s 750 mmHg 88%
22:00 +18°C° 0 mm 3 m/s 750 mmHg 89%
23:00 +17°C° 0 mm 3 m/s 750 mmHg 90%

12 Juillet, Dimanche

Heure Température Précipitation Vent Pression Humidité
00:00 +17°C° 0 mm 3 m/s 750 mmHg 90%
01:00 +17°C° 0 mm 3 m/s 750 mmHg 91%
02:00 +16°C° 0 mm 3 m/s 750 mmHg 91%
03:00 +17°C° 0 mm 2 m/s 750 mmHg 90%
04:00 +17°C° 0 mm 2 m/s 750 mmHg 89%
05:00 +17°C° 0 mm 2 m/s 750 mmHg 89%
06:00 +19°C° 0 mm 2 m/s 750 mmHg 86%
07:00 +20°C° 0 mm 2 m/s 750 mmHg 83%
08:00 +22°C° 0 mm 1 m/s 750 mmHg 81%
09:00 +22°C° 0.1 mm 1 m/s 750 mmHg 81%
10:00 +23°C° 0.1 mm 1 m/s 750 mmHg 80%
11:00 +24°C° 0.1 mm 1 m/s 750 mmHg 80%
12:00 +24°C° 1 mm 2 m/s 750 mmHg 80%
13:00 +24°C° 1 mm 2 m/s 749 mmHg 80%
14:00 +25°C° 1 mm 2 m/s 749 mmHg 80%
15:00 +24°C° 1.4 mm 2 m/s 749 mmHg 81%
16:00 +24°C° 1.4 mm 2 m/s 749 mmHg 83%
17:00 +24°C° 1.4 mm 2 m/s 748 mmHg 84%
18:00 +23°C° 0.7 mm 2 m/s 748 mmHg 87%
19:00 +21°C° 0.7 mm 2 m/s 748 mmHg 90%
20:00 +20°C° 0.7 mm 2 m/s 748 mmHg 93%
21:00 +19°C° 0.1 mm 2 m/s 748 mmHg 93%
22:00 +18°C° 0.1 mm 2 m/s 748 mmHg 94%
23:00 +18°C° 0.1 mm 2 m/s 747 mmHg 94%
Voir plus